309  
ASUS41 KBOX 202110  
RWRBOX  
 
REGIONAL WEATHER ROUNDUP  
NATIONAL WEATHER SERVICE BOSTON/NORTON MA  
500 PM EDT MON AUG 20 2018  
 
NOTE: "FAIR" INDICATES FEW OR NO CLOUDS BELOW 12,000 FEET WITH NO  
SIGNIFICANT WEATHER AND/OR S TO VISIBILITY
.  
 
MAZALL-202200-  
EASTERN MASSACHUSETTS  
 
CITY SKY/WX TMP DP RH WIND PRES REMARKS
 
BOSTON FAIR 71 62 73 E13 30.17S  
BEVERLY FAIR 72 61 68 E6 30.16S  
LAWRENCE FAIR 76 59 55 NE10 30.19S  
BEDFORD PTSUNNY 73 59 61 NE12 30.15S  
BLUE HILL N/A 69 62 78 E13 30.16F  
NORWOOD FAIR 75 63 66 NE8 30.15S  
MARSHFIELD FAIR 70 64 83 VRB5G14 30.16R  
PLYMOUTH PTSUNNY 70 63 78 NE14 30.15S  
TAUNTON FAIR 74 61 63 NE8 30.14S  
NEW BEDFORD PTSUNNY 73 64 73 NE14G20 30.13S  

 
 
MAZALL-202200-  
CAPE COD AND THE ISLANDS  
 
CITY SKY/WX TMP DP RH WIND PRES REMARKS
 
FALMOUTH CLOUDY 70 64 83 NE15G21 30.14S  
HYANNIS CLOUDY 70 64 81 N14G21 30.12R  
CHATHAM CLOUDY 69 63 81 NE9 30.14R  
PROVINCETOWN CLOUDY 68 64 87 NE12 30.15R  
NANTUCKET CLOUDY 68 65 90 N17 30.11R  
MARTHAS VNYRD CLOUDY 70 65 84 NE10 30.12R  

 
 
MAZALL-202200-  
CENTRAL AND WESTERN MASSACHUSETTS  
 
CITY SKY/WX TMP DP RH WIND PRES REMARKS
 
WORCESTER CLOUDY 70 58 65 NE6 30.17F  
FITCHBURG PTSUNNY 73 59 61 E9 30.17F  
ORANGE PTSUNNY 76 58 53 SE8 30.16F  
SPRINGFIELD PTSUNNY 76 60 56 E5 30.12F  
WESTFIELD PTSUNNY 76 60 57 E5 30.13F  
NORTH ADAMS FAIR 76 58 53 E8 30.13F  
PITTSFIELD PTSUNNY 75 58 55 VRB6 30.14F  

 
 
RIZALL-202200-  
RHODE ISLAND  
 
CITY SKY/WX TMP DP RH WIND PRES REMARKS
 
PROVIDENCE FAIR 75 57 53 NE17 30.14S  
NEWPORT FAIR 74 61 63 NE14 30.13S  
BLOCK ISLAND CLOUDY 71 64 78 NE9 30.13S  
SMITHFIELD FAIR 74 59 59 E8 30.16S  
WESTERLY CLOUDY 76 62 62 NE9 30.13S  

 
 
CTZALL-202200-  
CONNECTICUT  
 
CITY SKY/WX TMP DP RH WIND PRES REMARKS
 
BRADLEY INTL PTSUNNY 77 59 53 E10 30.12F  
HARTFORD FAIR 76 61 59 NE7 30.12F  
BRIDGEPORT CLOUDY 75 64 68 SE6 30.11F  
DANBURY FAIR 74 64 71 S5 30.13F  
GROTON CLOUDY 76 61 59 NE10 30.11F  
NEW HAVEN PTSUNNY 76 65 68 S5 30.12F  
CHESTER CLOUDY 73 64 73 CALM 30.14S  
MERIDEN FAIR 75 60 59 SE6 30.12F  
WILLIMANTIC CLOUDY 78 60 53 E12 30.13F  
OXFORD PTSUNNY 74 64 71 E6 30.14F  

 
 
MEZ002-015-021-024-NHZ003-005-008-011-012-014-VTZ005-008-202200-  
NORTHERN NEW ENGLAND  
 
CITY SKY/WX TMP DP RH WIND PRES REMARKS
 
PORTLAND ME FAIR 70 59 68 SE7 30.18S  
BANGOR ME PTSUNNY 77 55 46 N6 30.16S  
CONCORD NH PTSUNNY 73 59 61 SE7 30.16S  
MANCHESTER NH FAIR 75 57 53 E9 30.15S  
NASHUA NH FAIR 75 59 57 E10 30.17F  
PORTSMOUTH NH MOSUNNY 70 56 61 E7 30.16S  
JAFFREY NH FAIR 73 60 63 VRB3 30.18F  
KEENE NH CLOUDY N/A N/A N/A CALM 30.15F  
BURLINGTON VT FAIR 81 58 45 W8 30.10F  
MT. WASHINGTON PTSUNNY 52 46 82 W12 N/A  

 
 
NYZ052-076-202200-  
EASTERN NEW YORK  
 
CITY SKY/WX TMP DP RH WIND PRES REMARKS
 
ALBANY PTSUNNY 79 59 50 SE7 30.11F  
NEW YORK CITY PTSUNNY 76 63 64 E8 30.11F  

 
 
ANZALL-202200-  
MARINE OBSERVATIONS  
 
STATION/POSITION TIME TEMP WIND PRES VSBY WAVE
 
AIR SEA DIR/SP/G HT/PER  
(UTC) (F) (DEG/KT/KT) (MB) (MI) (FT/S)  
BOSTON BUOY 2050 67 68 40/ 12/ 14 1020.4F 5/ 7  
BUZZARDS BAY 2000 69 40/ 18/ 21 1020.3R  
NANTUCKET SOUND 2050 70 75 30/ 16/ 17 1019.7R 2/ 4  
MASS BAY-STELLWA 2004 67 67 40/ 12/ 14 1019.8S 1 7/8 5/ 6  
ISLE OF SHOALS 2000 65 60/ 7/ 7 1021.5R  
S OF BLOCK IS 2043 71 N/A 3/ 5  

 
   
.....................KEY......................
 
 
SKY/WX - SKY CONDITION/PRESENT WEATHER  
TMP - TEMPERATURE IN FAHRENHEIT  
DWPT - DEWPOINT IN FAHRENHEIT  
RH - RELATIVE HUMIDITY IN PERCENT  
WIND - DIRECTION AND SPEED IN MPH  
PRES - MEAN SEA LEVEL PRESSURE IN INCHES OF HG  
WCI - WIND CHILL INDEX  
VSB - VISIBILITY IN MILES  
HX - HEAT INDEX  
TC - TEMPERATURE IN CELSIUS  
VRB - VARIABLE WIND DIRECTION  
N/A - NOT AVAILABLE  
 
 
CLICK HERE TO GO TO PREVIOUS BULLETINS.

The Nexlab MA Page
The Nexlab RI Page
The Nexlab NH Page
The Nexlab CT Page Main Text Page